Regional Weather Roundup
Issued by NWS Cleveland, OH

Home | Current Version | Previous Version | Graphics & Text | Print | Product List | Glossary On
Versions: 1 2 3 4 5 6 7 8 9 10 11 12 13 14 15 16 17 18 19 20 21 22 23 24 25 26 27 28 29 30 31 32 33 34 35 36 37 38 39 40 41 42 43 44 45 46 47 48 49 50
000
ASUS41 KCLE 270400
RWRCLE
OHIO REGIONAL WEATHER ROUNDUP
NATIONAL WEATHER SERVICE WILMINGTON, OH
1200 AM EDT FRI MAR 27 2015

NOTE: "FAIR" INDICATES FEW OR NO CLOUDS BELOW 12,000 FEET WITH NO
SIGNIFICANT WEATHER AND/OR OBSTRUCTIONS TO VISIBILITY.

OHZ001>008-015>018-024>027-034-035-043-044-270500-
   NORTHWEST OHIO

CITY           SKY/WX    TMP DP  RH WIND       PRES   REMARKS
DEFIANCE       CLOUDY    35  25  66 NW9       29.97S WCI  28
FINDLAY        CLOUDY    35  22  58 NW8       29.94S WCI  29
TOLEDO EXPRESS CLOUDY    35  22  58 NW9       29.94F WCI  28
TOLEDO EXEC    CLOUDY    36  23  59 NW9       29.95S
LIMA           CLEAR     33  25  72 W5        29.96S WCI  29
$$

OHZ009>014-019>023-028>033-038-089-270500-
   NORTHEAST OHIO

CITY           SKY/WX    TMP DP  RH WIND       PRES   REMARKS
CLE-HOPKINS    CLOUDY    37  29  72 NW6       29.93R
CLE-LAKEFRONT  CLOUDY    35  30  82 W7        29.90R WCI  29
CUY CO. ARPT   NOT AVBL
LORAIN-ELYRIA  CLOUDY    36  28  73 NW9       29.92R
ASHTABULA      CLOUDY    34  32  92 W3        29.87F
AKRON-CANTON   CLOUDY    36  33  89 SW3       29.88S FOG
WOOSTER        CLOUDY    36  34  92 W6        29.89F FOG
MANSFIELD      MOCLDY    35  27  72 NW8       29.91R WCI  29
YOUNGSTOWN     CLOUDY    34  33  96 SW5       29.86F FOG     WCI  30
$$

OHZ042-051>053-060>062-070>072-077>081-270500-
  SOUTHWEST OHIO

CITY           SKY/WX    TMP DP  RH WIND       PRES   REMARKS
CINC-COVINGTON PTCLDY    36  30  79 W6        29.98R
CINC-LUNKEN    CLOUDY    40  33  76 W5        29.99R
HAMILTON       CLOUDY    40  34  79 NW6       30.00R
DAYTON         NOT AVBL
WRIGHT-PAT AFB NOT AVBL
DAYTON GENERAL CLOUDY    38  29  70 N6        29.97R
WILMINGTON     CLOUDY    39  31  72 NW7       29.95S
$$

OHZ036-037-039>041-045>050-054>059-063>069-073>076-082>088-270500-
  CENTRAL AND SOUTHEAST OHIO

CITY           SKY/WX    TMP DP  RH WIND       PRES   REMARKS
COLUMBUS       CLOUDY    38  32  79 NW13      29.93S
OSU AIRPORT    CLOUDY    36  28  73 NW10      29.94R
BOLTON FIELD   NOT AVBL
RICKENBACK AFB CLOUDY    38  34  84 NW8       29.93F
NEWARK         CLOUDY    39  33  79 SW3       29.91F
MARION         MOCLDY    34  24  67 NW8       29.95R WCI  27
LANCASTER      CLOUDY    39  34  82 SW5       29.93F
ZANESVILLE     CLOUDY    38  32  79 W5        29.92F
NEW PHILLY     CLOUDY    40  34  79 CALM      29.90F
$$


USA.gov is the U.S. government's official web portal to all federal, state and local government web resources and services.